Tracking 31027 objects as of 19-Jul-2025
HD Live streaming from Space Station
objects crossing your sky now

SL-16 DEB

Track SL-16 DEB now!
10-day predictions


NORAD ID: 22494
Int'l Code: 1992-093GD
Perigee: 755.7 km
Apogee: 977.9 km
Inclination: 70.8 °
Period: 102.1 minutes
Semi major axis: 7237 km
RCS: 0.0111 m2 (small)
Launch date: December 25, 1992
Source: Commonwealth of Independent States (former USSR) (CIS)
Launch site: TYURATAM MISSILE AND SPACE COMPLEX (TTMTR)

Note: This is SATELLITE DEBRIS
Your satellite tracking list
KL-BETA B
Track 1 satellite(s)




NASA's NSSDC Master Catalog

Two Line Element Set (TLE):
1 22494U 92093GD  25198.61137683  .00002443  00000-0  12670-2 0  9995
2 22494  70.8127  70.3531 0153498 200.8830 178.8517 14.09922784642182
Source of the keplerian elements: AFSPC